TimeCST,TemperatureF,Dew PointF,Humidity,Sea Level PressureIn,VisibilityMPH,Wind Direction,Wind SpeedMPH,Gust SpeedMPH,PrecipitationIn,Events,Conditions,WindDirDegrees,DateUTC
12:15 AM,-9.4,-18.4,65,30.37,10.0,WSW,6.9,-,N/A,,Clear,240,2014-01-28 06:15:00
12:35 AM,-11.2,-18.4,70,30.36,10.0,WSW,5.8,-,N/A,,Clear,250,2014-01-28 06:35:00
12:55 AM,-11.2,-18.4,70,30.35,10.0,WSW,4.6,-,N/A,,Clear,250,2014-01-28 06:55:00
1:15 AM,-9.4,-16.6,71,30.35,10.0,SW,4.6,-,N/A,,Clear,230,2014-01-28 07:15:00
1:35 AM,-9.4,-16.6,71,30.36,10.0,WSW,6.9,-,N/A,,Clear,240,2014-01-28 07:35:00
1:55 AM,-9.4,-18.4,65,30.35,-9999.0,SW,8.1,-,N/A,,Clear,230,2014-01-28 07:55:00
2:15 AM,-11.2,-18.4,70,30.35,10.0,WSW,6.9,-,N/A,,Clear,240,2014-01-28 08:15:00
2:35 AM,-11.2,-18.4,70,30.36,10.0,WSW,8.1,-,N/A,,Clear,240,2014-01-28 08:35:00
2:55 AM,-11.2,-18.4,70,30.35,10.0,WSW,6.9,-,N/A,,Clear,240,2014-01-28 08:55:00
3:15 AM,-11.2,-18.4,70,30.35,10.0,WSW,6.9,-,N/A,,Clear,250,2014-01-28 09:15:00
3:35 AM,-11.2,-18.4,70,30.35,10.0,WSW,6.9,-,N/A,,Clear,250,2014-01-28 09:35:00
3:55 AM,-9.4,-18.4,65,30.35,10.0,WSW,9.2,-,N/A,,Clear,240,2014-01-28 09:55:00
4:15 AM,-11.2,-18.4,70,30.35,10.0,WSW,9.2,-,N/A,,Clear,240,2014-01-28 10:15:00
4:35 AM,-11.2,-18.4,70,30.35,10.0,WSW,8.1,-,N/A,,Clear,250,2014-01-28 10:35:00
4:55 AM,-11.2,-18.4,70,30.35,10.0,WSW,9.2,-,N/A,,Clear,250,2014-01-28 10:55:00
5:15 AM,-11.2,-18.4,70,30.34,10.0,West,8.1,-,N/A,,Clear,260,2014-01-28 11:15:00
5:35 AM,-11.2,-18.4,70,30.35,10.0,West,8.1,-,N/A,,Clear,260,2014-01-28 11:35:00
5:55 AM,-11.2,-18.4,70,30.34,10.0,West,10.4,-,N/A,,Clear,270,2014-01-28 11:55:00
6:15 AM,-11.2,-18.4,70,30.33,10.0,West,8.1,-,N/A,,Clear,270,2014-01-28 12:15:00
6:35 AM,-11.2,-18.4,70,30.33,10.0,West,9.2,-,N/A,,Clear,260,2014-01-28 12:35:00
6:55 AM,-11.2,-18.4,70,30.33,10.0,West,8.1,-,N/A,,Clear,260,2014-01-28 12:55:00
7:15 AM,-11.2,-18.4,70,30.33,10.0,West,8.1,-,N/A,,Clear,260,2014-01-28 13:15:00
7:35 AM,-11.2,-18.4,70,30.33,10.0,West,6.9,-,N/A,,Clear,260,2014-01-28 13:35:00
7:55 AM,-11.2,-18.4,70,30.33,10.0,West,6.9,-,N/A,,Clear,260,2014-01-28 13:55:00
8:15 AM,-9.4,-16.6,71,30.32,10.0,West,6.9,-,N/A,,Clear,260,2014-01-28 14:15:00
8:35 AM,-5.8,-14.8,65,30.33,10.0,West,9.2,-,N/A,,Clear,270,2014-01-28 14:35:00
8:55 AM,-4.0,-11.2,71,30.33,10.0,West,10.4,-,N/A,,Clear,280,2014-01-28 14:55:00
9:15 AM,-2.2,-11.2,66,30.33,10.0,West,11.5,-,N/A,,Clear,280,2014-01-28 15:15:00
9:35 AM,-0.4,-11.2,60,30.33,10.0,WNW,15.0,-,N/A,,Clear,300,2014-01-28 15:35:00
9:55 AM,-0.4,-9.4,66,30.32,10.0,WNW,15.0,-,N/A,,Clear,290,2014-01-28 15:55:00
10:15 AM,1.4,-11.2,56,30.32,10.0,NW,15.0,24.2,N/A,,Clear,310,2014-01-28 16:15:00
10:35 AM,1.4,-9.4,61,30.32,10.0,WNW,17.3,23.0,N/A,,Clear,300,2014-01-28 16:35:00
10:55 AM,3.2,-9.4,56,30.32,10.0,NW,16.1,24.2,N/A,,Clear,310,2014-01-28 16:55:00
11:15 AM,3.2,-9.4,56,30.31,10.0,NW,17.3,24.2,N/A,,Clear,310,2014-01-28 17:15:00
11:35 AM,5.0,-7.6,56,30.30,10.0,WNW,15.0,23.0,N/A,,Clear,300,2014-01-28 17:35:00
11:55 AM,5.0,-7.6,56,30.29,10.0,NW,16.1,24.2,N/A,,Scattered Clouds,310,2014-01-28 17:55:00
12:15 PM,6.8,-5.8,56,30.29,10.0,WNW,20.7,-,N/A,,Scattered Clouds,290,2014-01-28 18:15:00
12:35 PM,6.8,-7.6,52,30.27,10.0,NW,15.0,23.0,N/A,,Scattered Clouds,310,2014-01-28 18:35:00
12:55 PM,6.8,-7.6,52,30.26,10.0,NW,19.6,-,N/A,,Partly Cloudy,310,2014-01-28 18:55:00
1:15 PM,8.6,-7.6,48,30.26,10.0,WNW,17.3,24.2,N/A,,Partly Cloudy,290,2014-01-28 19:15:00
1:35 PM,8.6,-7.6,48,30.25,10.0,NW,19.6,-,N/A,,Clear,320,2014-01-28 19:35:00
1:55 PM,8.6,-7.6,48,30.24,10.0,NW,18.4,-,N/A,,Clear,310,2014-01-28 19:55:00
2:15 PM,8.6,-7.6,48,30.24,10.0,NW,17.3,25.3,N/A,,Clear,310,2014-01-28 20:15:00
2:35 PM,8.6,-7.6,48,30.23,10.0,NW,18.4,25.3,N/A,,Clear,310,2014-01-28 20:35:00
2:55 PM,8.6,-7.6,48,30.23,10.0,NW,17.3,-,N/A,,Clear,310,2014-01-28 20:55:00
3:15 PM,8.6,-7.6,48,30.22,10.0,WNW,13.8,21.9,N/A,,Clear,300,2014-01-28 21:15:00
3:35 PM,8.6,-9.4,44,30.22,10.0,NW,16.1,-,N/A,,Clear,310,2014-01-28 21:35:00
3:55 PM,8.6,-7.6,48,30.22,10.0,WNW,13.8,20.7,N/A,,Clear,290,2014-01-28 21:55:00
4:15 PM,8.6,-7.6,48,30.22,10.0,WNW,16.1,-,N/A,,Clear,290,2014-01-28 22:15:00
4:35 PM,8.6,-7.6,48,30.22,10.0,WNW,12.7,20.7,N/A,,Partly Cloudy,300,2014-01-28 22:35:00
4:55 PM,6.8,-7.6,52,30.22,10.0,WNW,13.8,-,N/A,,Clear,300,2014-01-28 22:55:00
5:15 PM,6.8,-7.6,52,30.22,10.0,WNW,9.2,16.1,N/A,,Clear,300,2014-01-28 23:15:00
5:35 PM,5.0,-7.6,56,30.21,10.0,WNW,6.9,-,N/A,,Clear,300,2014-01-28 23:35:00
5:55 PM,3.2,-7.6,61,30.20,10.0,WNW,6.9,-,N/A,,Clear,290,2014-01-28 23:55:00
6:15 PM,1.4,-7.6,66,30.20,10.0,WNW,6.9,-,N/A,,Clear,290,2014-01-29 00:15:00
6:35 PM,1.4,-7.6,66,30.19,10.0,WNW,6.9,-,N/A,,Clear,300,2014-01-29 00:35:00
6:55 PM,-0.4,-9.4,66,30.19,10.0,WNW,6.9,-,N/A,,Clear,290,2014-01-29 00:55:00
7:15 PM,-0.4,-9.4,66,30.19,10.0,West,5.8,-,N/A,,Clear,280,2014-01-29 01:15:00
7:35 PM,1.4,-9.4,61,30.18,10.0,West,6.9,-,N/A,,Clear,280,2014-01-29 01:35:00
7:55 PM,-0.4,-9.4,66,30.18,10.0,West,6.9,-,N/A,,Clear,270,2014-01-29 01:55:00
8:15 PM,-0.4,-9.4,66,30.17,10.0,West,6.9,-,N/A,,Clear,260,2014-01-29 02:15:00
8:35 PM,-2.2,-11.2,66,30.17,10.0,WSW,6.9,-,N/A,,Clear,250,2014-01-29 02:35:00
8:55 PM,-0.4,-9.4,66,30.16,10.0,WSW,6.9,-,N/A,,Clear,250,2014-01-29 02:55:00
9:15 PM,-0.4,-9.4,66,30.16,10.0,SW,6.9,-,N/A,,Clear,230,2014-01-29 03:15:00
9:35 PM,-0.4,-9.4,66,30.16,10.0,SW,6.9,-,N/A,,Clear,230,2014-01-29 03:35:00
9:55 PM,-2.2,-11.2,66,30.14,10.0,SW,5.8,-,N/A,,Clear,220,2014-01-29 03:55:00
10:15 PM,-2.2,-11.2,66,30.14,10.0,SW,6.9,-,N/A,,Clear,220,2014-01-29 04:15:00
10:35 PM,-2.2,-11.2,66,30.14,10.0,SW,8.1,-,N/A,,Clear,220,2014-01-29 04:35:00
10:55 PM,-2.2,-11.2,66,30.14,10.0,SW,5.8,-,N/A,,Clear,220,2014-01-29 04:55:00
11:15 PM,-2.2,-11.2,66,30.14,10.0,SW,6.9,-,N/A,,Clear,220,2014-01-29 05:15:00
11:35 PM,-2.2,-11.2,66,30.14,10.0,SW,9.2,-,N/A,,Clear,220,2014-01-29 05:35:00
11:55 PM,-2.2,-11.2,66,30.13,10.0,SW,8.1,-,N/A,,Clear,230,2014-01-29 05:55:00